Wind_Speed
54 54 50 49 47 44 41 36 33 33 34 35 38 39 40 32 31 27 22 26 27 26 25 26 25 26 28 28 28 31 38 35 35 37 38 43 46 54 52 53 48 46 44 45
56 58 56 52 49 47 43 39 35 35 37 41 40 42 44 42 34 33 28 28 28 28 27 29 31 30 28 28 30 30 31 37 37 41 44 46 46 50 52 55 53 51 46 43
58 62 63 50 53 50 46 43 40 37 41 43 45 44 45 48 45 37 37 34 33 32 31 31 30 30 31 32 33 35 35 38 42 45 48 50 50 51 50 51 48 50 50 45
63 64 59 55 56 55 52 46 44 41 44 47 47 47 48 50 51 45 42 43 39 38 35 35 35 34 35 35 34 36 40 40 41 44 46 47 48 47 46 45 46 46 46 47
70 68 61 58 58 58 58 48 46 46 49 50 50 51 52 56 52 50 50 48 46 42 39 37 38 39 40 41 40 42 38 39 40 42 44 46 48 49 49 48 49 50 50 50
73 71 65 60 63 61 62 51 49 52 54 55 54 53 56 56 53 54 56 55 53 51 44 39 40 40 41 43 40 44 46 45 44 43 43 45 46 46 47 48 50 52 52 51
76 74 65 61 64 65 62 54 59 57 58 58 59 57 59 58 58 58 60 61 58 56 53 47 47 45 42 41 45 47 43 46 48 49 48 49 49 49 49 49 51 52 53 54
77 74 64 61 64 67 66 62 59 60 60 60 60 62 64 62 62 62 63 62 59 58 58 55 55 52 49 49 50 47 45 47 50 52 50 49 50 51 51 50 51 51 51 55
79 73 68 66 63 66 69 67 65 64 64 65 66 67 66 66 65 66 65 65 62 62 62 60 59 59 54 55 51 51 50 50 50 50 52 53 52 53 55 56 55 55 56 55
83 78 73 71 70 68 70 73 73 72 70 69 69 69 69 68 67 67 69 68 69 68 68 66 63 61 58 58 54 55 57 55 51 51 51 51 52 53 54 56 57 57 59 60
83 78 75 74 74 73 72 73 74 75 76 76 74 72 72 72 69 71 75 73 74 75 71 73 71 70 67 66 60 58 58 55 51 48 50 51 51 52 52 54 55 56 59 61
81 79 76 75 75 75 74 74 74 77 78 78 77 78 77 79 76 67 69 81 80 87 86 84 81 80 74 71 68 65 61 57 58 59 59 58 59 60 59 59 61 60 62 63
80 79 77 76 75 75 76 76 77 79 79 80 80 78 78 81 84 77 87 89 91 90 90 90 83 79 79 76 75 74 70 64 64 64 65 66 62 61 66 68 65 65 66 67
78 79 78 77 77 76 77 79 79 81 83 82 83 83 84 89 89 87 88 88 88 88 86 86 85 83 79 81 79 78 74 70 70 71 69 66 66 63 66 66 66 66 68 66
74 73 73 74 74 74 75 77 77 77 79 81 81 82 82 83 86 88 87 88 90 88 86 86 88 90 88 87 85 81 79 79 79 77 73 70 71 74 70 69 68 64 65 69
72 72 72 71 71 72 73 75 76 77 77 78 80 82 84 86 88 89 90 92 91 88 88 85 84 84 83 83 83 79 80 84 83 82 80 78 73 72 69 64 63 59 62 66
70 70 71 71 72 72 72 74 77 79 80 81 80 79 76 75 75 74 75 77 76 77 78 79 79 78 78 78 78 78 79 78 77 74 76 72 71 67 61 58 55 55 60 61
51 54 55 54 54 55 55 58 60 61 61 62 65 66 69 70 71 72 74 75 76 76 76 74 72 71 71 70 69 69 68 66 66 64 61 57 59 52 47 42 46 48 50 53
43 47 49 51 52 52 54 56 57 58 59 59 59 61 60 61 63 66 67 67 65 64 63 57 55 53 51 51 51 50 50 49 49 48 43 40 38 33 31 34 39 39 31 27
48 49 49 48 47 47 46 45 42 42 42 44 46 44 40 39 38 39 39 38 39 40 40 40 39 38 37 36 36 35 35 35 33 29 26 23 22 25 30 28 19 21 24 32
41 40 42 40 23 17 20 26 26 20 17 21 18 18 19 22 25 26 27 28 28 30 30 31 30 28 26 24 22 21 23 20 16 16 18 22 25 23 13 12 17 25 33 38
21 21 16 14 14 14 12 14 13 13 16 18 20 24 26 28 30 31 32 33 34 35 36 36 35 34 31 26 23 23 19 16 18 20 22 21 12 8 11 14 19 27 35 40
25 21 14 11 9 10 12 12 15 17 21 24 26 28 30 34 36 36 38 42 42 44 43 40 39 37 34 31 31 27 22 20 21 21 17 12 9 11 11 13 19 29 36 36
25 30 21 12 14 14 16 18 20 23 26 30 33 32 36 39 41 44 46 51 49 45 44 42 39 37 34 32 28 25 22 21 19 16 14 13 11 12 12 15 19 25 30 34
21 22 25 18 15 18 20 22 26 29 31 34 36 38 41 43 46 50 53 49 45 38 32 28 27 23 19 16 15 15 15 14 11 14 15 13 13 15 14 15 17 22 24 30
19 18 20 20 24 28 29 30 31 31 33 36 40 39 42 46 50 52 48 35 25 20 18 14 5 2 5 7 8 7 9 10 9 10 12 13 15 16 16 17 17 20 21 20
17 18 23 25 28 30 31 32 33 35 36 38 37 38 42 45 50 49 34 13 6 2 3 7 12 13 13 12 13 12 10 9 11 10 13 15 16 18 19 19 19 19 19 20
Wind_Direction
262 265 269 272 281 285 286 288 289 288 291 298 296 301 301 300 300 303 307 306 303 306 309 305 293 289 286 282 271 265 260 261 256 256 257 265 271 276 282 286 291 292 288 284
262 267 270 272 277 280 281 280 279 280 287 287 292 295 298 300 297 300 300 294 292 297 297 292 293 289 280 284 284 277 266 254 252 255 261 266 271 277 281 285 289 288 287 287
259 261 265 273 275 275 275 275 275 277 277 283 286 291 296 298 297 296 297 294 292 289 286 288 290 291 293 294 291 287 284 279 274 270 269 270 270 272 276 277 282 283 285 285
256 258 264 266 269 271 270 268 271 273 274 276 281 286 288 290 291 295 291 290 287 285 283 285 287 290 291 291 287 283 283 280 276 273 272 273 274 274 276 276 276 278 280 282
255 258 258 261 263 266 269 269 272 272 271 274 278 281 284 284 288 291 290 288 286 283 284 285 287 287 292 293 288 283 271 272 276 276 277 277 277 277 279 280 279 280 279 279
255 257 260 258 261 264 265 268 267 265 267 269 271 273 275 280 286 288 288 286 287 289 287 284 280 282 290 285 285 289 286 280 274 270 271 272 272 271 272 274 277 277 278 279
253 256 258 259 262 263 266 262 262 262 264 267 269 272 274 276 278 279 280 284 286 285 285 286 286 287 282 282 280 280 287 280 279 277 273 270 268 269 269 270 276 279 280 281
251 254 255 258 261 264 265 265 265 265 266 267 269 270 271 272 273 274 275 277 280 282 284 284 284 286 288 289 285 279 280 277 275 276 277 278 279 279 279 277 276 276 277 280
249 251 252 253 254 261 266 267 265 263 263 264 265 267 270 272 273 275 278 279 280 280 282 283 285 286 287 287 284 279 278 276 273 271 273 276 277 278 279 280 281 280 280 279
247 249 249 249 251 252 258 262 264 264 264 266 268 269 271 273 276 279 280 282 283 283 283 284 285 285 284 287 283 284 282 283 277 273 272 272 274 277 279 280 280 280 281 281
251 252 253 254 255 257 258 261 265 268 270 272 273 274 276 279 284 284 283 284 287 288 287 289 292 292 291 292 286 285 281 280 276 276 280 280 277 274 273 274 275 276 277 278
252 253 254 255 257 258 259 261 264 268 271 275 279 281 283 283 282 290 284 288 290 288 291 292 292 292 291 290 289 288 285 282 281 281 283 285 284 282 280 278 279 279 278 278
252 254 254 254 255 257 260 262 263 265 266 269 271 275 281 279 282 278 279 282 283 283 285 285 287 288 289 288 286 286 286 284 282 281 281 278 280 282 282 283 282 283 283 281
252 254 256 258 259 261 262 262 264 267 269 271 272 273 274 276 278 278 278 278 279 280 283 284 286 286 285 283 282 281 282 279 281 279 277 276 274 277 279 277 278 284 284 282
257 258 259 261 263 265 266 268 270 270 270 272 274 274 274 274 275 275 276 277 277 279 280 280 280 280 280 279 277 276 276 275 276 278 275 273 273 274 275 276 277 276 280 284
256 258 258 259 260 262 264 265 267 270 272 273 273 273 274 275 276 277 278 280 281 280 279 279 279 278 279 279 280 280 280 279 281 282 280 278 276 276 274 277 276 277 278 275
256 260 263 265 265 265 265 267 268 268 270 272 274 276 276 277 278 277 277 279 281 281 281 280 279 281 283 283 282 280 279 279 280 279 277 276 278 277 277 276 276 280 277 278
254 255 256 259 260 261 262 264 269 274 276 276 275 276 277 279 282 282 282 282 284 285 286 285 285 285 283 279 277 277 278 278 279 279 278 277 277 274 273 274 279 276 278 280
253 256 258 259 262 265 268 271 273 275 275 276 277 277 277 277 278 279 280 281 283 285 286 287 286 283 281 280 280 280 281 282 282 281 283 281 279 279 279 277 278 280 273 270
260 263 265 268 269 272 273 273 276 277 275 276 277 281 284 287 289 291 293 294 293 293 293 293 292 292 291 290 289 286 284 281 285 290 291 286 277 277 278 280 270 278 282 280
263 267 266 265 251 242 257 275 265 260 287 286 294 299 300 297 296 297 298 299 298 298 297 294 294 293 291 287 284 282 281 288 285 279 280 279 283 280 265 281 294 296 289 292
220 219 215 216 216 226 245 268 284 295 294 297 295 296 296 296 295 297 298 297 296 296 294 293 292 290 287 287 282 274 276 278 279 277 288 284 254 239 274 275 293 301 299 304
190 202 197 213 224 242 258 271 283 289 293 299 298 298 305 302 299 301 302 303 301 298 293 289 285 281 280 276 272 272 273 269 274 289 277 222 221 249 265 291 303 309 313 317
210 218 235 276 280 281 278 282 286 290 297 300 304 305 306 303 304 309 310 309 302 295 292 290 287 285 281 280 278 272 265 266 275 271 207 212 236 249 265 286 307 324 327 325
247 246 241 260 274 286 290 291 290 291 295 299 305 307 305 305 309 315 316 309 300 296 292 283 279 287 287 278 269 263 254 254 237 207 219 234 252 251 268 286 308 322 325 330
261 284 293 294 293 296 295 293 293 295 297 301 303 303 303 308 314 319 323 318 307 291 284 289 309 187 174 174 144 160 171 178 196 215 231 245 249 254 269 277 300 315 327 349
275 288 292 290 291 292 292 294 294 295 296 298 296 298 301 309 316 322 328 334 337 336 54 98 134 143 142 144 146 145 161 192 214 230 243 245 248 255 266 276 288 303 315 327
Height
10956 10958 10965 10967 10971 10976 10979 10980 10979 10976 10975 10973 10968 10964 10959 10960 10959 10958 10956 10951 10949 10947 10945 10943 10943 10942 10939 10938 10936 10935 10935 10935 10935 10933 10931 10930 10929 10924 10920 10921 10921 10921 10919 10916
10946 10944 10950 10958 10961 10964 10967 10970 10970 10967 10965 10962 10961 10957 10951 10949 10950 10948 10949 10947 10944 10941 10941 10939 10934 10932 10932 10929 10928 10928 10927 10927 10924 10922 10920 10920 10919 10912 10910 10909 10910 10909 10908 10907
10935 10932 10931 10950 10947 10950 10954 10957 10959 10960 10956 10954 10951 10948 10943 10936 10935 10939 10939 10937 10935 10933 10934 10932 10928 10924 10920 10917 10916 10913 10910 10907 10907 10905 10904 10905 10907 10906 10904 10902 10901 10897 10892 10895
10918 10917 10927 10936 10933 10935 10940 10947 10948 10949 10946 10944 10942 10940 10936 10930 10927 10928 10928 10926 10927 10926 10925 10923 10921 10917 10914 10911 10911 10909 10905 10902 10901 10898 10896 10894 10893 10893 10891 10890 10887 10885 10883 10882
10899 10904 10917 10924 10922 10922 10922 10935 10938 10937 10934 10933 10930 10928 10926 10920 10920 10918 10915 10914 10913 10916 10917 10914 10911 10908 10906 10904 10901 10897 10897 10894 10890 10886 10884 10883 10881 10879 10878 10876 10874 10871 10872 10871
10886 10891 10903 10911 10906 10910 10910 10926 10927 10922 10919 10918 10917 10918 10913 10911 10909 10905 10902 10901 10901 10901 10905 10905 10904 10901 10897 10893 10891 10886 10882 10879 10877 10876 10874 10872 10870 10869 10867 10865 10863 10861 10858 10857
10869 10874 10890 10897 10892 10891 10898 10910 10903 10905 10905 10904 10903 10904 10899 10900 10897 10894 10890 10888 10889 10889 10889 10890 10888 10889 10889 10885 10879 10874 10870 10866 10863 10861 10859 10858 10857 10855 10854 10853 10850 10846 10844 10841
10854 10861 10876 10877 10874 10874 10877 10884 10890 10889 10889 10889 10888 10887 10884 10884 10883 10881 10878 10877 10876 10875 10873 10872 10870 10870 10869 10866 10862 10859 10857 10853 10849 10846 10845 10842 10839 10837 10836 10836 10834 10832 10831 10826
10837 10849 10859 10861 10866 10860 10856 10862 10867 10870 10871 10871 10871 10869 10869 10867 10867 10866 10865 10864 10861 10857 10856 10856 10854 10852 10850 10848 10842 10840 10838 10837 10836 10834 10831 10828 10825 10823 10821 10818 10816 10814 10813 10812
10823 10835 10841 10844 10846 10849 10844 10842 10843 10847 10851 10854 10853 10852 10853 10853 10852 10851 10849 10846 10844 10841 10837 10835 10835 10834 10832 10831 10828 10822 10818 10816 10815 10816 10814 10813 10811 10808 10805 10801 10800 10798 10795 10792
10808 10820 10826 10829 10831 10834 10836 10832 10829 10828 10828 10830 10834 10835 10834 10834 10835 10832 10827 10824 10821 10817 10815 10812 10812 10813 10811 10811 10808 10804 10801 10799 10797 10794 10793 10791 10791 10791 10790 10786 10786 10784 10779 10777
10792 10799 10808 10813 10817 10818 10819 10821 10819 10815 10813 10813 10813 10810 10809 10808 10809 10809 10802 10799 10802 10797 10793 10792 10791 10790 10790 10787 10785 10783 10782 10779 10777 10775 10773 10772 10771 10767 10767 10767 10764 10765 10763 10760
10775 10782 10788 10794 10799 10802 10803 10802 10801 10802 10801 10800 10799 10798 10795 10791 10793 10797 10792 10785 10781 10777 10774 10771 10770 10769 10768 10767 10763 10761 10761 10760 10759 10757 10755 10752 10751 10751 10750 10741 10742 10741 10739 10737
10758 10763 10768 10772 10776 10780 10782 10782 10783 10784 10781 10782 10781 10780 10779 10775 10772 10771 10768 10764 10759 10756 10755 10753 10751 10746 10747 10744 10742 10741 10740 10740 10740 10737 10734 10731 10730 10728 10728 10729 10725 10715 10711 10714
10742 10748 10752 10756 10760 10762 10762 10762 10762 10762 10762 10761 10760 10758 10757 10755 10751 10746 10744 10740 10735 10736 10735 10731 10727 10723 10720 10718 10718 10717 10716 10714 10713 10713 10711 10708 10707 10706 10704 10704 10704 10702 10696 10687
10723 10728 10733 10738 10741 10743 10744 10744 10743 10742 10742 10740 10737 10734 10732 10731 10728 10726 10722 10717 10712 10708 10705 10704 10701 10697 10693 10693 10691 10690 10687 10686 10685 10685 10683 10681 10680 10680 10679 10679 10679 10678 10676 10672
10713 10715 10716 10719 10720 10722 10725 10726 10723 10722 10721 10719 10717 10713 10710 10706 10703 10700 10697 10694 10690 10685 10682 10679 10675 10672 10670 10668 10665 10662 10661 10658 10657 10656 10654 10653 10653 10653 10654 10655 10656 10655 10654 10652
10696 10696 10698 10701 10702 10702 10704 10703 10703 10703 10702 10700 10698 10694 10690 10687 10685 10681 10677 10673 10667 10663 10657 10654 10651 10648 10645 10642 10639 10637 10636 10633 10631 10630 10629 10629 10629 10631 10633 10635 10637 10637 10636 10632
10681 10683 10685 10687 10689 10691 10691 10691 10690 10688 10685 10682 10680 10677 10673 10669 10664 10659 10656 10651 10647 10643 10638 10635 10631 10627 10624 10621 10618 10617 10615 10612 10610 10610 10611 10612 10614 10616 10618 10619 10621 10621 10620 10618
10670 10671 10672 10674 10676 10677 10678 10676 10674 10671 10669 10667 10663 10660 10656 10652 10647 10643 10639 10636 10632 10628 10624 10619 10616 10613 10610 10607 10605 10603 10601 10600 10600 10601 10602 10603 10605 10606 10607 10609 10609 10610 10609 10607
10659 10660 10661 10662 10663 10664 10665 10665 10662 10661 10659 10657 10654 10651 10649 10645 10641 10637 10633 10630 10626 10621 10616 10612 10609 10606 10603 10601 10599 10596 10594 10595 10595 10596 10596 10597 10597 10598 10599 10601 10603 10603 10599 10596
10649 10650 10654 10655 10657 10658 10657 10657 10655 10654 10653 10651 10649 10646 10643 10638 10635 10630 10625 10621 10617 10613 10609 10605 10602 10598 10595 10594 10592 10589 10590 10591 10591 10591 10591 10589 10590 10593 10595 10597 10596 10593 10589 10584
10644 10648 10650 10652 10652 10652 10652 10651 10650 10648 10647 10643 10640 10637 10633 10628 10624 10620 10615 10610 10604 10597 10592 10589 10586 10584 10583 10582 10581 10582 10584 10584 10584 10584 10583 10584 10587 10589 10590 10591 10589 10585 10578 10573
10643 10644 10644 10645 10646 10645 10645 10644 10643 10640 10637 10634 10631 10626 10622 10617 10612 10608 10602 10594 10584 10579 10575 10572 10570 10568 10569 10570 10571 10573 10575 10576 10577 10577 10579 10581 10583 10584 10585 10584 10583 10579 10573 10566
10638 10640 10641 10643 10641 10640 10638 10636 10634 10631 10629 10625 10620 10616 10611 10606 10602 10595 10586 10575 10566 10561 10559 10556 10556 10559 10559 10560 10561 10563 10566 10568 10570 10573 10575 10578 10579 10579 10580 10579 10578 10575 10569 10561
10634 10634 10633 10633 10633 10631 10629 10627 10625 10622 10619 10615 10611 10607 10602 10597 10591 10584 10574 10561 10554 10550 10548 10549 10551 10552 10552 10554 10556 10559 10561 10565 10568 10570 10572 10574 10574 10574 10574 10574 10573 10570 10566 10561
10630 10629 10628 10626 10625 10622 10620 10617 10614 10611 10608 10606 10603 10598 10592 10588 10583 10576 10567 10558 10552 10549 10548 10549 10550 10551 10554 10556 10556 10558 10561 10563 10564 10567 10569 10569 10570 10569 10568 10568 10568 10565 10563 10559